Location: Ariel
(45.9570°N, 122.5700°W)
Time: 23:36:54
(UTC-07:00)

Explorer 11/Cluster Stage 4 - Visible Passes

Search period start: 18 July 2019 00:00
Search period end: 28 July 2019 00:00
Orbit: 467 x 1260 km, 28.8° (Epoch: 18 July)

Date Brightness Start Highest point End Pass type
(mag) Time Alt. Az. Time Alt. Az. Time Alt. Az.
18 Jul 9.2 02:51:24 12° SSE 02:51:24 12° SSE 02:53:48 10° SE visible
18 Jul 8.8 04:33:32 11° SW 04:38:50 21° S 04:44:33 10° SE visible
19 Jul 9.1 02:41:11 13° SSE 02:41:11 13° SSE 02:43:18 10° SE visible
19 Jul 8.7 04:23:19 13° SSW 04:27:53 21° S 04:33:39 10° SE visible
20 Jul 9.1 02:31:01 12° SE 02:31:01 12° SE 02:32:39 10° SE visible
20 Jul 8.7 04:13:09 15° SSW 04:16:57 21° S 04:22:41 10° SE visible
21 Jul 9.2 02:20:55 12° SE 02:20:55 12° SE 02:21:53 10° SE visible
21 Jul 8.6 04:03:04 17° SSW 04:06:01 21° S 04:11:41 10° SE visible
22 Jul 9.3 02:10:55 10° SE 02:10:55 10° SE 02:11:03 10° SE visible
22 Jul 8.5 03:53:04 18° SSW 03:55:07 21° S 04:00:37 10° SE visible
23 Jul 8.5 03:43:11 19° S 03:44:13 20° S 03:49:30 10° SE visible
24 Jul 8.5 03:33:28 19° S 03:33:28 19° S 03:38:20 10° SE visible
25 Jul 8.7 03:23:54 17° SSE 03:23:54 17° SSE 03:27:07 10° SE visible
25 Jul 8.9 05:07:28 10° SW 05:10:23 13° SSW 05:13:25 10° S visible
26 Jul 9.0 03:14:33 13° SSE 03:14:33 13° SSE 03:15:49 10° SSE visible
26 Jul 8.9 04:57:56 10° SSW 04:59:29 11° SSW 05:01:06 10° S visible
